Вернуться в каталог

SL-16 DEB

LostLEO
NORAD 39906·DEBRIS·🇷🇺 Russia

Запущен Mar 26, 1993 с Baikonur Cosmodrome

Loading…

Ближайшие Пролёты (ближайшие 24 часа)

TLE

УстаревшееSource: Space-Track

Эпоха: Sep 23, 2022, 09:15 UTC

1 39906U 93016CG  22266.38546950  .00004380  00000-0  17615-2 0  9991
2 39906  70.9716 272.5366 0116832  67.1174 294.2237 14.24958509932939

Отслеживайте SL-16 DEB в реальном времени с AllMySat

Download on the App Store